Location: De Har
(53.3413°N, 6.6858°E)
Time: 16:57:35
(UTC+00:00)

COSMOS 2428 - Pass Details

Date: 22 April 2026
Orbit: 843 x 855 km, 70.9° (Epoch: 9 May)

Event Time Altitude Azimuth Distance (km) Brightness Sun altitude
Rises 02:11:10 0° 328° (NNW) 3,437 6.1 -16.2°
Reaches altitude 10° 02:13:45 10° 334° (NNW) 2,496 5.4 -16.0°
Maximum altitude 02:19:16 47° 48° (NE) 1,125 3.9 -15.4°
Drops below altitude 10° 02:24:45 10° 122° (ESE) 2,476 5.3 -14.8°
Sets 02:27:17 0° 128° (SE) 3,406 5.9 -14.6°
